Weather Roundup
Issued by NWS

Home | Current Version | Previous Version | Text Only | Print | Product List | Glossary On
Versions: 1 2 3 4 5 6 7 8 9 10 11 12 13 14 15 16 17 18 19 20 21 22 23 24 25 26 27 28 29 30 31 32 33 34 35 36 37 38 39 40 41 42 43 44 45 46 47 48 49 50
000
NZUS93 KARX 300610
HRRWXR

CURRENT HOURLY OBSERVATIONS ACROSS
MUCH OF THE UPPER MISSISSIPPI VALLEY
NATIONAL WEATHER SERVICE LA CROSSE WI
100 AM CDT MON MAY 30 2016


...SOUTHEAST MINNESOTA...


CITY           SKY/WX    TMP DP  RH WIND       PRES   REMARKS
ROCHESTER      CLEAR     62  58  86 W6        30.02F
ROCHESTER/MAYO FAIR      65  57  75 W3        30.02S
WINONA         CLEAR     61  59  94 CALM      30.00S
AUSTIN         CLEAR     61  54  77 CALM      30.02S
ALBERT LEA     CLEAR     61  54  77 CALM      30.03S
DODGE CENTER   PTCLDY    57  55  94 SW3       30.02F
PRESTON        CLEAR     61  56  85 W3        30.03S
OWATONNA       CLEAR     61  57  88 CALM      30.02S
FARIBAULT      MOCLDY    57  57 100 CALM      30.01F VSB 1/4
$$

...ELSEWHERE IN MINNESOTA...


CITY           SKY/WX    TMP DP  RH WIND       PRES   REMARKS
MINNEAPOLIS    CLEAR     65  57  75 CALM      29.99S
INTNL FALLS    CLEAR     47  45  93 CALM      29.90S
DULUTH         CLEAR     52  49  89 W9        29.94R
RED WING       CLEAR     57  55  94 CALM      29.98F
REDWOOD FALLS  CLEAR     60  50  69 E3        30.00S
MANKATO        CLEAR     63  55  77 CALM      30.01S
WORTHINGTON    CLEAR     60  55  83 SW3       30.05S
FAIRMONT       CLEAR     61  52  72 W3        30.02S
$$

...SOUTHWEST WISCONSIN...


CITY           SKY/WX    TMP DP  RH WIND       PRES   REMARKS
LA CROSSE      MOCLDY    65  61  87 S7        29.99R
PRAIRIE DU CHI MOCLDY    60  57  89 CALM      30.01S
BOSCOBEL       CLEAR     58  57  97 CALM      30.01S FOG
LONE ROCK      CLEAR     60  58  92 CALM      30.01S
PLATTEVILLE    CLEAR     66  60  82 CALM      30.02S
FORT MC COY    PTCLDY    55  55  97 CALM      30.00S
CAMP DOUGLAS   MOCLDY    57  57 100 SE1       29.98S
MAUSTON-NEW LI CLOUDY    62  59  90 CALM      29.98S
VIROQUA        FAIR      63  57  82 CALM      30.02S
WIS DELLS      CLEAR     62  58  87 CALM      30.00S
$$

...ELSEWHERE IN WISCONSIN...


CITY           SKY/WX    TMP DP  RH WIND       PRES   REMARKS
MILWAUKEE      MOCLDY    69  58  67 W6        29.98S
MADISON        CLEAR     63  60  90 CALM      29.99S
GREEN BAY      CLEAR     63  57  81 W3        29.95S
EAU CLAIRE     CLEAR     61  57  87 CALM      29.98R
BLACK RVR FLS  FAIR      59  59 100 CALM      29.98S
MEDFORD        CLEAR     59  57  91 W3        29.98S
WAUSAU         PTCLDY    62  56  80 NW6       29.96S
WIS RAPIDS     CLOUDY    60  56  86 SW5       29.99S
MARSHFIELD     CLOUDY    63  56  78 N3        29.98R
RICE LAKE      PTCLDY    58  57  94 CALM      30.00S
$$

...NORTHEAST IOWA...


CITY           SKY/WX    TMP DP  RH WIND       PRES   REMARKS
WATERLOO       CLEAR     62  59  90 CALM      30.01S
DUBUQUE        CLEAR     63  58  83 S3        30.02S
DECORAH        CLEAR     63  59  88 SW3       30.01S
MASON CITY     CLEAR     59  52  77 W7        30.04S
CHARLES CITY   CLEAR     63  55  77 W5        30.03S
OELWEIN        CLEAR     63  59  88 SW5       30.03S
$$

...ELSEWHERE IN IOWA...


CITY           SKY/WX    TMP DP  RH WIND       PRES   REMARKS
DES MOINES     CLOUDY    72  58  61 CALM      30.01F
IOWA CITY      CLOUDY    67  58  72 CALM      30.03S
FORT DODGE     CLOUDY    59  50  72 CALM      30.03F
MARSHALLTOWN   CLOUDY    64  59  83 N5        30.02S
CEDAR RAPIDS   CLOUDY    66  60  81 N6        30.02R
$$

...NORTHERN ILLINOIS...


CITY           SKY/WX    TMP DP  RH WIND       PRES   REMARKS
CHICAGO-OHARE  PTCLDY    66  58  75 W7        30.00S
CHICAGO-MIDWAY PTCLDY    70  57  63 SW7       30.00S
MOLINE         MOCLDY    70  56  61 CALM      30.01F
ROCKFORD       PTCLDY    63  57  81 S6        30.03S
PEORIA         PTCLDY    64  57  78 CALM      30.04S
$$

NOTE: "FAIR" INDICATES FEW OR NO CLOUDS BELOW 12,000 FEET WITH NO
SIGNIFICANT WEATHER AND/OR OBSTRUCTIONS TO VISIBILITY. WIND
SPEEDS ARE IN MILES-PER-HOUR.




USA.gov is the U.S. government's official web portal to all federal, state and local government web resources and services.